Change the Weather History Date:

Wednesday, October 23, 2013

  Actual Average Record
Temperature  
Mean Temperature 40 °F -  
Max Temperature 48 °F 58 °F 83 °F (1947)
Min Temperature 32 °F 38 °F 25 °F (1969)
Degree Days  
Heating Degree Days 25    
Moisture  
Dew Point 32 °F    
Average Humidity 78    
Maximum Humidity 100    
Minimum Humidity 37    
Precipitation  
Precipitation 0.00 in - - ()
Sea Level Pressure  
Sea Level Pressure 29.86 in    
Wind  
Wind Speed 6 mph (WNW)    
Max Wind Speed 20 mph    
Max Gust Speed 25 mph    
Visibility 9 miles    
Events Rain    
Averages and records for this station are not official NWS values.
T = Trace of Precipitation, MM = Missing Value Source: NWS Daily Summary

Daily Weather History Graph

Daily Weather History Graph

Search for Another Location

Airport or City:

Trip Planner

Search our weather history database for the weather conditions in past years. The results will help you decide how hot, cold, wet, or windy it might be!

Date:

Astronomy

Oct. 23, 2013 Rise Set
Actual Time 7:55 AM EDT 6:39 PM EDT
Civil Twilight 7:27 AM EDT 7:08 PM EDT
Nautical Twilight 6:54 AM EDT 7:40 PM EDT
Astronomical Twilight 6:22 AM EDT 8:12 PM EDT
Moon 10:07 PM EDT (10/23) 12:14 PM EDT (10/23)
Length of Visible Light 11h 40m
Length of Day
10h 43m
Waning Gibbous, 79% of the Moon is Illuminated
Oct 23
Waning Gibbous
Oct 26
Last Quarter
Nov 3
New
Nov 10
First Quarter
Nov 17
Full

Hourly Weather History & Observations

Time (EDT) Temp. Windchill Dew Point Humidity Pressure Visibility Wind Dir Wind Speed Gust Speed Precip Events Conditions
12:13 AM 39.2 °F 34.2 °F 33.8 °F 81% 29.88 in 10.0 mi WSW 6.9 mph - N/A   Overcast
12:33 AM 39.2 °F 34.2 °F 33.8 °F 81% 29.87 in 10.0 mi WSW 6.9 mph - N/A   Mostly Cloudy
12:53 AM 39.2 °F 35.0 °F 35.6 °F 87% 29.87 in 10.0 mi WSW 5.8 mph - N/A   Mostly Cloudy
1:13 AM 37.4 °F 32.8 °F 33.8 °F 87% 29.86 in 10.0 mi WSW 5.8 mph - N/A   Overcast
1:33 AM 37.4 °F 33.8 °F 35.6 °F 93% 29.85 in 10.0 mi WSW 4.6 mph - N/A   Mostly Cloudy
1:53 AM 37.4 °F 32.8 °F 35.6 °F 93% 29.85 in 10.0 mi WSW 5.8 mph - N/A   Overcast
2:13 AM 37.4 °F 32.8 °F 35.6 °F 93% 29.84 in 10.0 mi West 5.8 mph - N/A   Overcast
2:33 AM 37.4 °F 33.8 °F 35.6 °F 93% 29.84 in 10.0 mi West 4.6 mph - N/A   Mostly Cloudy
2:54 AM 37.4 °F - 33.8 °F 87% 29.83 in 10.0 mi Calm Calm - N/A   Scattered Clouds
3:14 AM 35.6 °F 32.8 °F 33.8 °F 93% 29.83 in 10.0 mi WSW 3.5 mph - N/A   Scattered Clouds
3:34 AM 35.6 °F 32.8 °F 33.8 °F 93% 29.82 in 10.0 mi West 3.5 mph - N/A   Scattered Clouds
3:54 AM 35.6 °F 32.8 °F 33.8 °F 93% 29.82 in 10.0 mi West 3.5 mph - N/A   Scattered Clouds
4:14 AM 35.6 °F - 33.8 °F 93% 29.81 in 10.0 mi Calm Calm - N/A   Clear
4:34 AM 35.6 °F - 33.8 °F 93% 29.80 in 10.0 mi Calm Calm - N/A   Clear
4:54 AM 33.8 °F - 32.0 °F 93% 29.80 in 7.0 mi Calm Calm - N/A   Clear
5:15 AM 33.8 °F - 32.0 °F 93% 29.80 in 7.0 mi Calm Calm - N/A   Clear
5:35 AM 33.8 °F 30.8 °F 32.0 °F 93% 29.81 in 5.0 mi WNW 3.5 mph - N/A   Clear
5:55 AM 33.8 °F 30.8 °F 32.0 °F 93% 29.80 in 5.0 mi WNW 3.5 mph - N/A   Clear
6:15 AM 32.0 °F - 30.2 °F 93% 29.80 in 5.0 mi Calm Calm - N/A   Clear
6:35 AM 32.0 °F 28.7 °F 30.2 °F 93% 29.81 in 4.0 mi WNW 3.5 mph - N/A   Clear
6:55 AM 32.0 °F 28.7 °F 30.2 °F 93% 29.81 in 4.0 mi NW 3.5 mph - N/A   Clear
7:15 AM 32.0 °F 26.4 °F 30.2 °F 93% 29.81 in 4.0 mi NNW 5.8 mph - N/A   Scattered Clouds
7:35 AM 32.0 °F 27.5 °F 32.0 °F 100% 29.81 in 4.0 mi NNW 4.6 mph - N/A   Mostly Cloudy
7:55 AM 32.0 °F 28.7 °F 30.2 °F 93% 29.82 in 4.0 mi NW 3.5 mph - N/A   Scattered Clouds
8:15 AM 32.0 °F 28.7 °F 30.2 °F 93% 29.82 in 3.0 mi NW 3.5 mph - N/A   Clear
8:35 AM 32.0 °F 28.7 °F 30.2 °F 93% 29.83 in 2.5 mi WNW 3.5 mph - N/A   Clear
8:55 AM 33.8 °F 29.6 °F 32.0 °F 93% 29.84 in 3.0 mi WNW 4.6 mph - N/A   Clear
9:15 AM 35.6 °F 30.7 °F 33.8 °F 93% 29.85 in 4.0 mi WNW 5.8 mph - N/A   Clear
9:36 AM 35.6 °F 31.7 °F 33.8 °F 93% 29.85 in 7.0 mi NW 4.6 mph - N/A   Clear
9:56 AM 37.4 °F 32.8 °F 35.6 °F 93% 29.85 in 7.0 mi NW 5.8 mph - N/A   Clear
10:16 AM 39.2 °F 33.6 °F 35.6 °F 87% 29.85 in 10.0 mi NNW 8.1 mph - N/A   Scattered Clouds
10:36 AM 41.0 °F 36.4 °F 35.6 °F 81% 29.85 in 10.0 mi NNW 6.9 mph - N/A   Scattered Clouds
10:56 AM 42.8 °F 38.0 °F 33.8 °F 70% 29.85 in 10.0 mi NNW 8.1 mph - N/A   Scattered Clouds
11:16 AM 42.8 °F 38.0 °F 33.8 °F 70% 29.85 in 10.0 mi NW 8.1 mph - N/A   Scattered Clouds
11:36 AM 44.6 °F 40.2 °F 33.8 °F 66% 29.85 in 10.0 mi NNW 8.1 mph - N/A   Scattered Clouds
11:56 AM 44.6 °F 40.7 °F 32.0 °F 61% 29.85 in 10.0 mi WNW 6.9 mph - N/A   Mostly Cloudy
12:16 PM 42.8 °F 41.1 °F 30.2 °F 61% 29.86 in 10.0 mi WNW 3.5 mph - N/A   Mostly Cloudy
12:37 PM 46.4 °F 41.5 °F 30.2 °F 53% 29.86 in 10.0 mi West 10.4 mph 16.1 mph N/A   Mostly Cloudy
12:52 PM 46.4 °F 42.4 °F 28.4 °F 50% 29.85 in 10.0 mi NW 8.1 mph - N/A   Overcast
1:12 PM 44.6 °F 39.2 °F 28.4 °F 53% 29.85 in 10.0 mi WNW 10.4 mph - N/A   Overcast
1:32 PM 46.4 °F 42.4 °F 28.4 °F 50% 29.85 in 10.0 mi WNW 8.1 mph - N/A   Mostly Cloudy
1:52 PM 48.2 °F - 28.4 °F 46% 29.85 in 10.0 mi NW 13.8 mph - N/A   Mostly Cloudy
2:12 PM 48.2 °F - 26.6 °F 43% 29.84 in 10.0 mi WNW 10.4 mph - N/A   Mostly Cloudy
2:32 PM 48.2 °F - 28.4 °F 46% 29.84 in 10.0 mi North 10.4 mph - N/A   Overcast
2:52 PM 48.2 °F - 26.6 °F 43% 29.84 in 10.0 mi NW 11.5 mph 17.3 mph N/A   Overcast
3:12 PM 44.6 °F 38.8 °F 26.6 °F 49% 29.85 in 10.0 mi NW 11.5 mph 19.6 mph N/A Rain Light Rain
3:33 PM 46.4 °F 42.9 °F 26.6 °F 46% 29.85 in 10.0 mi NW 6.9 mph - N/A   Overcast
3:53 PM 46.4 °F 42.9 °F 24.8 °F 43% 29.85 in 10.0 mi West 6.9 mph - N/A   Overcast
4:13 PM 46.4 °F 41.5 °F 23.0 °F 40% 29.85 in 10.0 mi NW 10.4 mph 17.3 mph N/A   Scattered Clouds
4:33 PM 46.4 °F 41.9 °F 21.2 °F 37% 29.85 in 10.0 mi WNW 9.2 mph - N/A   Scattered Clouds
4:53 PM 46.4 °F 41.9 °F 24.8 °F 43% 29.86 in 10.0 mi West 9.2 mph - N/A   Mostly Cloudy
5:13 PM 46.4 °F 41.5 °F 24.8 °F 43% 29.86 in 10.0 mi West 10.4 mph - N/A   Overcast
5:33 PM 46.4 °F 42.4 °F 24.8 °F 43% 29.87 in 10.0 mi WNW 8.1 mph - N/A   Mostly Cloudy
5:53 PM 44.6 °F 38.8 °F 28.4 °F 53% 29.88 in 10.0 mi SW 11.5 mph - N/A   Overcast
6:13 PM 44.6 °F 40.7 °F 30.2 °F 57% 29.88 in 10.0 mi West 6.9 mph - N/A   Overcast
6:33 PM 42.8 °F 34.3 °F 30.2 °F 61% 29.90 in 10.0 mi West 19.6 mph 25.3 mph N/A   Overcast
6:53 PM 39.2 °F 31.6 °F 33.8 °F 81% 29.91 in 10.0 mi West 12.7 mph 20.7 mph N/A   Overcast
7:14 PM 37.4 °F 32.8 °F 35.6 °F 93% 29.91 in 10.0 mi WNW 5.8 mph - N/A Rain Light Rain
7:34 PM 37.4 °F 33.8 °F 35.6 °F 93% 29.91 in 10.0 mi West 4.6 mph - N/A   Light Drizzle
7:54 PM 37.4 °F 34.9 °F 35.6 °F 93% 29.91 in 10.0 mi West 3.5 mph - N/A   Overcast
8:14 PM 37.4 °F 32.8 °F 35.6 °F 93% 29.92 in 10.0 mi West 5.8 mph - N/A   Overcast
8:34 PM 39.2 °F 33.6 °F 35.6 °F 87% 29.92 in 10.0 mi West 8.1 mph - N/A   Overcast
8:54 PM 37.4 °F 32.1 °F 35.6 °F 93% 29.92 in 10.0 mi West 6.9 mph - N/A   Light Drizzle
9:14 PM 37.4 °F 31.4 °F 35.6 °F 93% 29.92 in 10.0 mi West 8.1 mph - N/A   Light Drizzle
9:34 PM 37.4 °F 32.1 °F 35.6 °F 93% 29.92 in 10.0 mi West 6.9 mph - N/A   Overcast
9:54 PM 37.4 °F 33.8 °F 35.6 °F 93% 29.92 in 10.0 mi West 4.6 mph - N/A   Overcast
10:15 PM 37.4 °F 33.8 °F 35.6 °F 93% 29.92 in 10.0 mi West 4.6 mph - N/A   Overcast
10:35 PM 37.4 °F 32.1 °F 33.8 °F 87% 29.93 in 10.0 mi West 6.9 mph - N/A   Overcast
10:55 PM 37.4 °F 31.4 °F 33.8 °F 87% 29.93 in 10.0 mi West 8.1 mph - N/A   Overcast
11:15 PM 37.4 °F 32.8 °F 33.8 °F 87% 29.93 in 10.0 mi West 5.8 mph - N/A   Overcast
11:35 PM 37.4 °F 31.4 °F 33.8 °F 87% 29.93 in 10.0 mi West 8.1 mph - N/A   Overcast
11:55 PM 35.6 °F 29.2 °F 33.8 °F 93% 29.93 in 10.0 mi West 8.1 mph - N/A   Overcast